STARLINK-2211, 47778

Orbit data source: Space-Track

STARLINK-2211, 47778 is a payload satellite owned by SpaceX/Seattle (US) in LEO that was launched on Thu, 04 Mar 2021 UTC via an FALCON 9 launch vehicle from the Air Force Eastern Test Range (AFETR). Payload-class satellites include a variety of spacecraft equipped with specific instruments for various scientific and technological missions. These include communications satellites like Starlink; space stations such as the ISS; scientific satellites like the Hubble; Earth observation satellites from companies like Planet Labs, Umbra, and HawkEye 360; GPS; miniature CubeSats for education and research; and military/defense satellites.

Loading next visibility...
Identifier
47778, 2021-017BJ
Orbit
LEO
Country
Flag of USUS
Related business
Manufacturer
SpaceX/Seattle
Mission
Operational Commercial Communications
Bus & Motor
STARLINK, Unknown motor
Mass
260 kg wet, ~248 kg dry
Launch date (UTC)
2021-03-04 (5 years ago)
Launch vehicle
FALCON 9
Launch site
Air Force Eastern Test Range (AFETR)
Object type
Payload
Rocket body
Debris
Shape & HBR
Box + 1 Pan, 10.1 m
Radar Cross Section
13.562 m², Large (>1 m²)

Expand to show TLE details & history
Last TLE update: 10 hours ago

TLE from 10 hours ago
0 STARLINK-2211
1 47778U 21017BJ  25346.97434392 -.00001371  00000-0 -73200-4 0  9995
2 47778  53.0532 240.8967 0001481  84.0200 276.0958 15.06394359264674
Epoch: 2025-12-12T23:23Z
TLE epoch observation values (Epoch: 2025-12-12T23:23:03.314Z)
Latitude
-0.00001°
Longitude
168.22461°
Altitude
547.999 km
Speed
7.589 km/s
True Right ascension
16h 03m 35s
True Declination
0° 00' 00"
Sunlit
Object was in daylight at epoch
Visualization orbit readout
Latitude
Unknown
Longitude
Unknown
Altitude
Unknown
Speed
Unknown
Apparent Right ascension
Unknown
Apparent Declination
Unknown
Sunlit
N/A
Visualization observer readout
Local Sidereal Time
07:27:32
Azimuth
Unknown
Elevation
Unknown
Doppler factor
Unknown
Orbital elements
Apogee altitude
548.525 km
Perigee altitude
546.474 km
Semi-major axis
6,925.637 km
Eccentricity
0.00015
Inclination
53.0532°
RAAN
240.8967°
Arg. of periapsis
84.02°
True anomaly
276.07892°
Mean anomaly
276.0958°
Eccentric anomaly
276.08736°
Mean motion
3.76577 °/min
Orbital period
95.6 mins
BSTAR
-0.0000732
Loading maneuver chart data...
Computing Atmospheric mass density...

Documentation

Showing up to 5 results
|